[[{"header":{"parameterUnit":"m.s-1","parameterCategory":1,"la1":30.2991,"la2":30.254,"lo1":-89.0895,"lo2":-89.0444,"dy":0.0017,"dx":0.0017,"nx":28,"ny":28,"refTime":"2026-01-04T03:00:00:Z","depth":0,"parameterNumber":2,"parameterNumberName":"U-component_of_WINDS"},"data":[0,0,0,0,0,0,0,0,0,0,0,0,0,0,0,0,0,0,0,0,0,0,0,0,0,0,0,0,0,0,0,0,0,0,0,0,0,0,0,0,0,0,0,0,0,0,0,0,0,0,0,0,0,0,0,0,0,0,-1.9758,-1.9759,0,-1.9843,-1.9844,-1.9845,-1.9825,-1.9823,-1.9821,-1.982,-1.9909,-1.9913,-1.9917,0,0,0,0,0,0,0,0,0,0,0,0,0,-1.9578,-1.9581,-1.9758,-1.9759,-1.976,-1.9843,-1.9844,-1.9845,-1.9825,-1.9823,-1.9821,-1.9819,-1.9908,-1.9912,-1.9917,0,0,0,0,0,0,0,0,0,0,0,0,0,-1.9659,-1.9583,-1.9757,-1.9759,-1.9761,-1.9843,-1.9844,-1.9846,-1.9825,-1.9823,-1.982,-1.9818,-1.9906,-1.9912,-1.9918,-2.0003,0,0,-1.9935,-1.9938,0,0,0,0,0,0,0,0,-1.9655,-1.9666,-1.9758,-1.9759,-1.9761,-1.9821,-1.9813,-1.9899,-1.9826,-1.9801,-1.982,-1.9817,-1.9882,-1.9889,-1.9911,-2.0007,-2.0011,-1.9936,-1.994,-1.9942,-1.9944,0,0,0,0,0,0,0,-1.9649,-1.9662,-1.9791,-1.9759,-1.9761,-1.9757,-1.9765,-1.983,-1.9854,-1.9803,-1.9801,-1.9812,-1.9882,-1.9905,-1.9913,-2.0013,-1.9936,-1.9941,-1.9945,-1.9947,-2.0184,-2.0187,0,0,0,0,0,0,-1.9642,-1.9657,-1.9789,-1.9794,-1.97,-1.9762,-1.9772,-1.9804,-1.9853,-1.9858,-1.9814,-1.9811,-1.9896,-1.9906,-1.9916,-2.002,-1.9942,-1.9948,-1.9951,-2.0182,-2.0185,-2.0188,0,0,0,0,0,0,-1.9638,-1.9654,-1.9785,-1.9725,-1.9742,-1.9768,-1.9804,-1.9807,-1.983,-1.9862,-1.9866,-1.9833,-1.9895,-1.9908,-1.9982,-2.0023,-1.995,-1.9956,-2.0178,-2.0183,-2.0187,-2.0229,0,0,0,0,0,0,-1.9633,-1.9653,-1.9685,-1.9726,-1.9745,-1.9849,-1.9806,-1.981,-1.984,-1.9837,-1.9881,-1.9886,-1.9894,-1.9973,-1.9988,-2.003,-1.996,-2.0175,-2.018,-2.0185,-2.0224,-2.0234,-2.0243,0,0,0,0,0,-1.9627,-1.9694,-1.9687,-1.9703,-1.9786,-1.9852,-1.9863,-1.987,-1.9844,-1.9877,-1.9897,-1.9884,-2.0016,-1.9981,-1.9997,-2.0041,-2.0172,-2.0179,-2.0185,-2.022,-2.0232,-2.0242,0,0,0,0,0,0,-1.9658,-1.9699,-1.9692,-1.9774,-1.981,-1.9848,-1.989,-1.9883,-1.9927,-1.9922,-1.9929,-1.9939,-2.0015,-2.0036,-1.9996,-2.0127,-2.009,-2.01,-2.0111,-2.0123,-2.0132,-2.0126,-1.9965,0,0,0,0,0,-1.9674,-1.9723,-1.9757,-1.9827,-1.9845,-1.9865,-1.9893,-1.9896,-1.9933,-1.9948,-1.9974,-2.001,-2.006,-2.0093,-2.014,-2.0226,-2.0236,-2.0265,-2.0274,-2.0282,-2.0291,-2.0339,-2.0352,-2.0209,-2.0209,-2.0209,0,0,-1.9708,-1.9737,-1.9768,-1.9834,-1.9861,-1.9913,-1.9877,-1.9933,-1.9972,-1.9957,-2.0028,-2.0048,-2.009,-2.0171,-2.0208,-2.019,-2.0332,-2.029,-2.0296,-2.03,-2.0346,-2.036,-2.0372,-2.0213,-2.0212,-2.0212,0,0,-1.9798,-1.9824,-1.9885,-1.9913,-1.9955,-1.9968,-1.9983,-2.0023,-2.0035,-2.0107,-2.0097,-2.0143,-2.0228,-2.0258,-2.0285,-2.0385,-2.0376,-2.04,-2.045,-2.0496,-2.0508,-2.0518,-2.0554,-2.0567,-2.0409,-2.0409,-2.0409,0,-1.9835,-1.9912,-1.9918,-1.9975,-2.0004,-1.9992,-2.0054,-2.0081,-2.0137,-2.0158,-2.0137,-2.0244,-2.0271,-2.0359,-2.0384,-2.0405,-2.0423,-2.0396,-2.0505,-2.0515,-2.0525,-2.056,-2.0574,-2.0412,-2.0411,-2.0411,-2.0411,0,-1.9957,-2.001,-2.0054,-2.0108,-2.0142,-2.0202,-2.0217,-2.0251,-2.025,-2.0265,-2.0339,-2.0371,-2.0425,-2.0445,-2.0446,-2.0534,-2.0522,-2.0503,-2.0466,-2.0541,-2.0575,-2.0588,-2.0416,-2.0415,-2.0414,-2.0413,0,0,-2.0069,-2.0124,-2.014,-2.0165,-2.021,-2.0252,-2.0311,-2.0363,-2.0392,-2.0431,-2.0481,-2.0553,-2.0536,-2.0566,-2.057,-2.0611,-2.0689,-2.0587,-2.0588,-2.0606,-2.0789,-2.0804,-2.0819,-2.0682,-2.0685,-2.0687,-2.0786,0,-2.0163,-2.0266,-2.0273,-2.0366,-2.0416,-2.0405,-2.0457,-2.049,-2.0506,-2.0551,-2.0568,-2.0619,-2.0593,-2.0611,-2.0651,-2.0671,-2.0726,-2.0664,-2.073,-2.0732,-2.0721,-2.0836,-2.0852,-2.0944,-2.0799,-2.0801,-2.0803,0,-2.0286,-2.0328,-2.0427,-2.0466,-2.0487,-2.0533,-2.0581,-2.0624,-2.0662,-2.067,-2.0704,-2.0702,-2.0763,-2.0723,-2.0807,-2.0765,-2.0792,-2.0806,-2.081,-2.0817,-2.0773,-2.0848,-2.0973,-2.0987,-2.0823,-2.0821,-2.082,0,-2.0359,-2.044,-2.051,-2.0531,-2.0578,-2.061,-2.0631,-2.0667,-2.0698,-2.074,-2.076,-2.0809,-2.0837,-2.0875,-2.0886,-2.0856,-2.0971,-2.0932,-2.098,-2.098,-2.1006,-2.1004,-2.1138,-2.1022,-2.1022,-2.1021,-2.1021,0,-2.0464,-2.0525,-2.0544,-2.0587,-2.0655,-2.0662,-2.0729,-2.0748,-2.078,-2.0827,-2.082,-2.0864,-2.0876,-2.0923,-2.0932,-2.1001,-2.1013,-2.1022,-2.1024,-2.1023,-2.1022,-2.1042,-2.1036,-2.1025,-2.1024,-2.1024,-2.1023,0,-2.0558,-2.0572,-2.0648,-2.0685,-2.0696,-2.0745,-2.0777,-2.0819,-2.0833,-2.0892,-2.0907,-2.093,-2.0984,-2.0999,-2.1064,-2.107,-2.1152,-2.1147,-2.1139,-2.1139,-2.1187,-2.1183,-2.134,-2.1361,-2.123,-2.1231,-2.1232,0,-2.0624,-2.0671,-2.0713,-2.0744,-2.0766,-2.0816,-2.0847,-2.0856,-2.0889,-2.0936,-2.0972,-2.1025,-2.1069,-2.1156,-2.1179,-2.1229,-2.1226,-2.1278,-2.1234,-2.1232,-2.1228,-2.1226,-2.1231,-2.1287,-2.1288,-2.1289,-2.129,0,-2.0741,-2.0746,-2.0791,-2.0839,-2.0877,-2.0915,-2.0952,-2.0978,-2.0991,-2.1029,-2.1084,-2.1118,-2.1184,-2.1238,-2.1288,-2.1311,-2.1303,-2.1303,-2.1317,-2.1318,-2.1312,-2.1317,-2.1163,-2.13,-2.1299,-2.1298,-2.1298,-2.1297,-2.0824,-2.0865,-2.0901,-2.0952,-2.098,-2.1015,-2.1056,-2.1075,-2.1121,-2.1176,-2.1178,-2.1238,-2.1276,-2.1342,-2.1367,-2.1415,-2.14,-2.142,-2.1425,-2.143,-2.1435,-2.1303,-2.1424,-2.1424,-2.1424,-2.1423,-2.1423,0,-2.0941,-2.0964,-2.101,-2.1062,-2.1102,-2.109,-2.113,-2.1165,-2.1218,-2.1253,-2.1296,-2.1359,-2.1411,-2.1438,-2.149,-2.1523,-2.1521,-2.1536,-2.1534,-2.154,-2.1445,-2.1428,-2.1537,-2.1537,-2.1537,-2.1537,-2.1537,-2.1537,-2.1007,-2.1076,-2.1085,-2.1169,-2.1191,-2.125,-2.1274,-2.1306,-2.1334,-2.1405,-2.1448,-2.1465,-2.1496,-2.155,-2.1598,-2.1604,-2.1624,-2.1641,-2.1646,-2.1558,-2.1546,-2.1535,-2.1519,-2.1645,-2.1646,-2.1737,-2.1738,-2.1738]},{"header":{"parameterUnit":"m.s-1","parameterCategory":1,"la1":30.2991,"la2":30.254,"lo1":-89.0895,"lo2":-89.0444,"dy":0.0017,"dx":0.0017,"nx":28,"ny":28,"refTime":"2026-01-04T03:00:00:Z","depth":0,"parameterNumber":3,"parameterNumberName":"V-component_of_WINDS"},"data":[0,0,0,0,0,0,0,0,0,0,0,0,0,0,0,0,0,0,0,0,0,0,0,0,0,0,0,0,0,0,0,0,0,0,0,0,0,0,0,0,0,0,0,0,0,0,0,0,0,0,0,0,0,0,0,0,0,0,-3.9943,-3.9943,0,-3.9962,-3.9962,-3.9962,-3.9882,-3.988,-3.9877,-3.9875,-3.9893,-3.9896,-3.9898,0,0,0,0,0,0,0,0,0,0,0,0,0,-3.9835,-3.9837,-3.9943,-3.9943,-3.9943,-3.9962,-3.9962,-3.9962,-3.9882,-3.988,-3.9877,-3.9874,-3.9892,-3.9895,-3.9899,0,0,0,0,0,0,0,0,0,0,0,0,0,-3.9871,-3.9838,-3.9943,-3.9906,-3.9903,-3.9962,-3.9962,-3.9963,-3.9883,-3.988,-3.9876,-3.9873,-3.9891,-3.9895,-3.9899,-3.9994,0,0,-3.9911,-3.9913,0,0,0,0,0,0,0,0,-3.9869,-3.9875,-3.9911,-3.9908,-3.9905,-3.9916,-3.9931,-3.9973,-3.9884,-3.989,-3.9875,-3.9871,-3.9904,-3.9906,-3.9918,-3.9995,-3.9996,-3.9912,-3.9914,-3.9916,-3.9917,0,0,0,0,0,0,0,-3.9866,-3.9873,-3.995,-3.9912,-3.9908,-3.9887,-3.9889,-3.9938,-3.9916,-3.989,-3.9884,-3.9887,-3.9901,-3.9914,-3.9917,-3.9996,-3.9912,-3.9915,-3.9918,-3.9919,-4.0153,-4.0157,0,0,0,0,0,0,-3.9869,-3.9872,-3.995,-3.9951,-3.9878,-3.9892,-3.9893,-3.9916,-3.9916,-3.9912,-3.989,-3.9883,-3.9909,-3.9913,-3.9918,-4.003,-3.9916,-3.992,-3.9922,-4.0149,-4.0154,-4.0158,0,0,0,0,0,0,-3.9867,-3.9877,-3.9949,-3.991,-3.9917,-3.9898,-3.9924,-3.9918,-3.9931,-3.9916,-3.9912,-3.9908,-3.9906,-3.9912,-3.9976,-4.0029,-3.9921,-3.9925,-4.0145,-4.0151,-4.0156,-4.0255,0,0,0,0,0,0,-3.9864,-3.9877,-3.9913,-3.9911,-3.992,-4.0008,-3.9927,-3.9921,-3.9938,-3.993,-3.9931,-3.9928,-3.9904,-3.9971,-3.998,-4.0033,-3.9928,-4.014,-4.0148,-4.0154,-4.0247,-4.0263,-4.0277,0,0,0,0,0,-3.9861,-3.994,-3.9916,-3.9925,-3.9965,-4.0011,-4.0016,-3.9987,-3.9943,-3.9979,-3.997,-3.9928,-4.0022,-3.9978,-3.9988,-4.0043,-4.0137,-4.0145,-4.0154,-4.024,-4.026,-4.0277,0,0,0,0,0,0,-3.9948,-3.9939,-3.9912,-3.9993,-4.0004,-3.9998,-4.0043,-4.0009,-4.0032,-4.0023,-3.9985,-3.9986,-4.0057,-4.0056,-4.0007,-4.0135,-4.0071,-4.0082,-4.0134,-4.0152,-4.0167,-4.0167,-3.9931,0,0,0,0,0,-3.9977,-4.0015,-4.0005,-4.0077,-4.0084,-4.0063,-4.0082,-4.0058,-4.0068,-4.0072,-4.0067,-4.0077,-4.0108,-4.013,-4.0158,-4.0246,-4.0245,-4.0288,-4.0303,-4.0316,-4.0327,-4.0373,-4.0392,-4.0186,-4.0186,-4.0186,0,0,-4.0036,-4.0036,-4.0063,-4.0095,-4.01,-4.0141,-4.0067,-4.0113,-4.0142,-4.0078,-4.0139,-4.0136,-4.0144,-4.0221,-4.0254,-4.0222,-4.0383,-4.0327,-4.0337,-4.0341,-4.0384,-4.0403,-4.0421,-4.0192,-4.0191,-4.019,0,0,-4.0166,-4.017,-4.0231,-4.0238,-4.0247,-4.0232,-4.0247,-4.0246,-4.0242,-4.0302,-4.0255,-4.0289,-4.0344,-4.0352,-4.0364,-4.0496,-4.0459,-4.0506,-4.0587,-4.0633,-4.0649,-4.0663,-4.0711,-4.0729,-4.0516,-4.0517,-4.0517,0,-4.0239,-4.0299,-4.0266,-4.0316,-4.0331,-4.0275,-4.0336,-4.0344,-4.0363,-4.0374,-4.0338,-4.0406,-4.0408,-4.0486,-4.0518,-4.0529,-4.0544,-4.0507,-4.0649,-4.0663,-4.0676,-4.0721,-4.0739,-4.0522,-4.0522,-4.0521,-4.0521,0,-4.0388,-4.0431,-4.0478,-4.0498,-4.0519,-4.0574,-4.0549,-4.0574,-4.0548,-4.0537,-4.0599,-4.0599,-4.0627,-4.0643,-4.0618,-4.0717,-4.0697,-4.0656,-4.0591,-4.0702,-4.0744,-4.0761,-4.0531,-4.0529,-4.0527,-4.0526,0,0,-4.0575,-4.0576,-4.0594,-4.0602,-4.0608,-4.064,-4.0692,-4.0719,-4.0742,-4.0755,-4.0798,-4.0846,-4.0808,-4.0821,-4.0796,-4.0836,-4.0942,-4.079,-4.0789,-4.0819,-4.1052,-4.1084,-4.1105,-4.0917,-4.092,-4.0922,-4.1051,0,-4.0703,-4.0793,-4.0765,-4.0856,-4.0894,-4.0841,-4.0886,-4.0895,-4.0886,-4.0916,-4.0905,-4.094,-4.0886,-4.0894,-4.0931,-4.0922,-4.0989,-4.0911,-4.0956,-4.0959,-4.0958,-4.1127,-4.1161,-4.1283,-4.1067,-4.107,-4.1072,0,-4.0865,-4.0886,-4.0981,-4.0981,-4.0996,-4.1038,-4.106,-4.109,-4.1098,-4.1088,-4.1103,-4.107,-4.1121,-4.1055,-4.1124,-4.1073,-4.1089,-4.1087,-4.1091,-4.1095,-4.1023,-4.1136,-4.1321,-4.134,-4.1098,-4.1096,-4.1094,0,-4.0993,-4.1045,-4.1108,-4.1117,-4.1118,-4.1148,-4.115,-4.1155,-4.1173,-4.1192,-4.1204,-4.1229,-4.1243,-4.1262,-4.1237,-4.1192,-4.131,-4.1242,-4.1304,-4.1305,-4.1332,-4.1331,-4.1523,-4.1341,-4.1341,-4.134,-4.134,0,-4.1139,-4.12,-4.1166,-4.1206,-4.1271,-4.1238,-4.1304,-4.1299,-4.1304,-4.1341,-4.1295,-4.1331,-4.1295,-4.1327,-4.1307,-4.1367,-4.1374,-4.1367,-4.1362,-4.1372,-4.1373,-4.1384,-4.1375,-4.1345,-4.1344,-4.1343,-4.1342,0,-4.1294,-4.1274,-4.134,-4.1335,-4.1335,-4.1385,-4.138,-4.1416,-4.1403,-4.1451,-4.146,-4.144,-4.1475,-4.1451,-4.1486,-4.1473,-4.1553,-4.1535,-4.1551,-4.1546,-4.1609,-4.1604,-4.1816,-4.1842,-4.1642,-4.1644,-4.1646,0,-4.139,-4.1435,-4.1436,-4.1458,-4.1463,-4.1498,-4.1517,-4.1485,-4.1506,-4.1519,-4.1553,-4.1585,-4.1609,-4.1667,-4.1656,-4.1682,-4.1665,-4.1737,-4.1669,-4.1678,-4.1668,-4.1666,-4.1671,-4.1752,-4.1754,-4.1756,-4.1758,0,-4.1562,-4.155,-4.1579,-4.1605,-4.1628,-4.1647,-4.1661,-4.1682,-4.1649,-4.1675,-4.1711,-4.173,-4.1766,-4.1798,-4.182,-4.1821,-4.1785,-4.1779,-4.1795,-4.1807,-4.1815,-4.1813,-4.159,-4.1775,-4.1773,-4.1772,-4.1771,-4.177,-4.1691,-4.1729,-4.1736,-4.1769,-4.1777,-4.1792,-4.1826,-4.1817,-4.1847,-4.1874,-4.1853,-4.1896,-4.1902,-4.1929,-4.1934,-4.1967,-4.1937,-4.196,-4.1966,-4.1972,-4.1982,-4.1809,-4.197,-4.197,-4.1969,-4.1969,-4.1969,0,-4.1862,-4.1864,-4.1895,-4.1917,-4.1944,-4.1907,-4.1921,-4.1945,-4.1984,-4.1993,-4.2018,-4.2059,-4.209,-4.2081,-4.2108,-4.2136,-4.212,-4.2144,-4.2143,-4.2144,-4.2006,-4.199,-4.2157,-4.2157,-4.2157,-4.2157,-4.2157,-4.2157,-4.1954,-4.2017,-4.2006,-4.2072,-4.2072,-4.2115,-4.2126,-4.2139,-4.2146,-4.2195,-4.2221,-4.2214,-4.2216,-4.2243,-4.2269,-4.2266,-4.2278,-4.2309,-4.23,-4.2172,-4.2153,-4.2136,-4.2121,-4.2312,-4.2312,-4.2435,-4.2436,-4.2437]}]]